Location: *
(35.8942°N, 23.3025°E)
Time: 23:33:09
(UTC+00:00)

CZ-2C R/B - Pass Details

Date: 21 September 2021
Orbit: 668 x 784 km, 98.2° (Epoch: 22 October)

Event Time Altitude Azimuth Distance (km) Brightness Sun altitude
Rises 01:12:53 0° 26° (NNE) 3,278 6.5 -35.7°
Reaches altitude 10° 01:15:35 10° 38° (NE) 2,343 5.7 -35.2°
Maximum altitude 01:19:55 27° 95° (E) 1,467 4.3 -34.5°
Enters shadow 01:20:31 26° 107° (ESE) 1,486 4.2 -34.4°
